Flag for Poland Weather past 2 weeks in Radom, Poland

Now
66 °F

Partly sunny.


Feels Like: 66 °F
Forecast: 46 / 75 °F
Wind: 5 mph from Northwest

Location: Kielce

Current Time: Jul 31, 2015 at 1:52:19 PM

Latest Report: Jul 31, 2015 at 1:00 PM


Visibility: 22 mi

Pressure: 30.03 "Hg

Humidity: 44%

Dew point: 44 °F

Location of RadomLocation

Historic Weather in Radom — Graph

°F

Radom temperature yesterday

Maximum temperature yesterday: 73 °F (at 4:00 PM)
Minimum temperature yesterday: 54 °F (at 6:00 AM)
Average temperature yesterday: 64 °F

Past Weeks' High & Low Weather Summary

 TemperatureHumidityPressure
High93 °F (Jul 18, 3:00 PM)98% (Jul 22, 5:00 AM)30.11 "Hg (Jul 22, 5:00 AM)
Low46 °F (Jul 31, 3:00 AM)29% (Jul 18, 3:00 PM)29.64 "Hg (Jul 25, 4:00 PM)
Average69 °F69%29.89 "Hg
* Reported Jul 16 12:00 Noon — Jul 31 12:00 Noon, Radom, Weather by CustomWeather, © 2015

Note: Actual official high and low records may vary slightly from our data, if they occured in-between our weather recording intervals... More about our weather records

Advertising

Radom weather history for previous 24 hours

 ConditionsComfort  
Time TempWeatherWind HumidityBarometerVisibility
12:00 PM
Fri, Jul 31
68 °FPartly sunny.5 mph44%30.03 "Hg22 mi
11:00 AM65 °FScattered clouds.3 mph54%30.04 "Hg19 mi
10:00 AM61 °FOvercast.5 mph58%30.05 "Hg22 mi
9:00 AM59 °FOvercast.3 mph63%30.04 "Hg19 mi
8:00 AM53 °FOvercast.1 mph87%30.04 "Hg16 mi
7:00 AM51 °FOvercast.No wind90%30.03 "Hg16 mi
6:00 AM47 °FOvercast.1 mph93%30.03 "Hg10 mi
4:00 AM48 °FOvercast.1 mph90%30.01 "Hg11 mi
3:00 AM46 °FOvercast.1 mph94%30.02 "Hg10 mi
2:00 AM47 °FOvercast.1 mph89%30.01 "Hg12 mi
12:00 AM51 °FPassing clouds.2 mph79%29.98 "Hg17 mi
10:00 PM
Thu, Jul 30
59 °FOvercast.1 mph57%29.95 "Hg9 mi
9:00 PM62 °FPassing clouds.2 mph48%29.93 "Hg14 mi
8:00 PM65 °FPassing clouds.3 mph44%29.91 "Hg22 mi
7:00 PM68 °FPassing clouds.3 mph37%29.89 "Hg31 mi
6:00 PM72 °FPassing clouds.5 mph32%29.87 "Hg28 mi
5:00 PM73 °FPassing clouds.6 mph32%29.86 "Hg28 mi
4:00 PM73 °FPassing clouds.5 mph31%29.86 "Hg28 mi
3:00 PM71 °FPassing clouds.6 mph34%29.86 "Hg25 mi
2:00 PM73 °FPassing clouds.6 mph35%29.86 "Hg28 mi
1:00 PM71 °FPassing clouds.6 mph39%29.87 "Hg28 mi
Weather by CustomWeather, © 2015

See weather overviewHow to use our weather pages